TELSTAR 12 (ORION 2) (25949 NORAD) Tracking and Keplerian Element Data

This shows tracking and keplerian element data for the satellite.

Feedback or suggestion? Click here.




ElementValue
Catalog25949
NameTELSTAR 12 (ORION 2)
Epoch Orbit7737
Epoch Day350.42465234
Epoch Year2020
RAAN82.3355
Inclination3.7326
Eccentricity0.0024896
Argument of Perigee262.551
Mean Anonmoly142.8989
Mean Motion0.99921397
Decay Rate-1.1E-07
L11 25949U 99059A 20350.42465234 -.00000011 00000-0 00000+0 0 9993
L22 25949 3.7326 82.3355 0024896 262.5510 142.8989 0.99921397 77372



Live tracking and technical data element details for TELSTAR 12 (ORION 2) (NORAD 25949). TELSTAR 12 (ORION 2) can be tracked NOW for your location showing map with azimuth and elevation plus other details from your city location.







IsCatalogInMostPopularTable: catalog: 25949, numindb: 434
Update: records affected: 1



GetName: 25949 TELSTAR 12 (ORION 2)

Hit Count: updated at: Thu, 16 Apr 2026 04:26:17 GMT